Location: Unspecified
(0.0000°N, 0.0000°E)
Time: 23:19:47
(UTC+00:00)

A-11 Canister half - Pass Details

Date: 09 February 2023
Orbit: 1526 x 1682 km, 47.3° (Epoch: 29 March)

Event Time Altitude Azimuth Distance (km) Brightness Sun altitude
Rises 02:26:53 0° 242° (WSW) 4,781 - -54.0°
Reaches altitude 10° 02:30:27 10° 251° (WSW) 3,771 - -53.2°
Maximum altitude 02:38:33 32° 311° (NW) 2,423 - -51.4°
Drops below altitude 10° 02:46:32 10° 10° (N) 3,688 - -49.6°
Sets 02:50:02 0° 20° (NNE) 4,663 - -48.7°
